Tracking 28081 objects as of 26-Sep-2023
HD Live streaming from Space Station
objects crossing your sky now

NOAA 17 DEB

Track NOAA 17 DEB now!
10-day predictions


NORAD ID: 48724
Int'l Code: 2002-032BJ
Perigee: 724.5 km
Apogee: 780.9 km
Inclination: 98.7 °
Period: 99.7 minutes
Semi major axis: 7123 km
RCS: Unknown
Launch date: June 24, 2002
Source: United States (US)
Launch site: AIR FORCE WESTERN TEST RANGE (AFWTR)

Note: This is SATELLITE DEBRIS
Your satellite tracking list
Your tracking list is empty




NASA's NSSDC Master Catalog

Two Line Element Set (TLE):
1 48724U 02032BH  23268.39778641  .00017742  00000-0  51488-2 0  9997
2 48724  98.7453 239.6297 0039596 111.5977 248.9438 14.43937485132499
Source of the keplerian elements: AFSPC